TimeEDT,TemperatureF,Dew PointF,Humidity,Sea Level PressureIn,VisibilityMPH,Wind Direction,Wind SpeedMPH,Gust SpeedMPH,PrecipitationIn,Events,Conditions,WindDirDegrees,DateUTC
12:51 AM,50.0,44.1,80,30.29,10.0,Calm,Calm,-,N/A,,Clear,0,2013-04-21 04:51:00
1:51 AM,48.9,46.0,90,30.30,10.0,Calm,Calm,-,N/A,,Clear,0,2013-04-21 05:51:00
2:51 AM,48.9,43.0,80,30.32,10.0,NNW,4.6,-,N/A,,Clear,330,2013-04-21 06:51:00
3:51 AM,52.0,37.9,59,30.34,10.0,NNE,24.2,28.8,N/A,,Clear,30,2013-04-21 07:51:00
4:51 AM,51.1,35.1,54,30.38,10.0,NNE,20.7,27.6,N/A,,Overcast,30,2013-04-21 08:51:00
5:51 AM,50.0,30.9,48,30.41,10.0,NNE,24.2,28.8,N/A,,Mostly Cloudy,30,2013-04-21 09:51:00
6:51 AM,50.0,28.9,44,30.45,10.0,NNE,20.7,28.8,N/A,,Clear,30,2013-04-21 10:51:00
7:51 AM,51.1,30.9,46,30.48,10.0,NNE,19.6,27.6,N/A,,Clear,30,2013-04-21 11:51:00
8:51 AM,52.0,30.9,45,30.49,10.0,NNE,20.7,27.6,N/A,,Clear,30,2013-04-21 12:51:00
9:51 AM,53.1,33.1,47,30.52,10.0,NE,15.0,21.9,N/A,,Clear,40,2013-04-21 13:51:00
10:51 AM,53.1,35.1,50,30.54,10.0,NE,16.1,24.2,N/A,,Mostly Cloudy,50,2013-04-21 14:51:00
11:51 AM,52.0,35.1,53,30.55,10.0,NE,17.3,25.3,N/A,,Partly Cloudy,50,2013-04-21 15:51:00
12:51 PM,53.1,34.0,48,30.55,10.0,East,18.4,24.2,N/A,,Partly Cloudy,80,2013-04-21 16:51:00
1:51 PM,53.1,36.0,52,30.54,10.0,NE,15.0,21.9,N/A,,Clear,50,2013-04-21 17:51:00
2:51 PM,51.1,35.1,54,30.53,10.0,ENE,16.1,23.0,N/A,,Clear,70,2013-04-21 18:51:00
3:51 PM,52.0,34.0,50,30.52,10.0,ENE,12.7,20.7,N/A,,Partly Cloudy,60,2013-04-21 19:51:00
4:51 PM,51.1,35.1,54,30.52,10.0,ENE,13.8,-,N/A,,Partly Cloudy,70,2013-04-21 20:51:00
5:51 PM,50.0,34.0,54,30.53,10.0,ENE,12.7,-,N/A,,Clear,60,2013-04-21 21:51:00
6:51 PM,48.0,33.1,56,30.52,10.0,ENE,15.0,-,N/A,,Clear,70,2013-04-21 22:51:00
7:51 PM,46.0,34.0,63,30.52,10.0,NE,11.5,-,N/A,,Clear,50,2013-04-21 23:51:00
8:51 PM,46.9,35.1,63,30.54,10.0,ENE,11.5,19.6,N/A,,Partly Cloudy,60,2013-04-22 00:51:00
9:51 PM,46.0,34.0,63,30.56,10.0,ENE,10.4,20.7,N/A,,Partly Cloudy,70,2013-04-22 01:51:00
10:51 PM,46.0,33.1,61,30.55,10.0,ENE,12.7,21.9,N/A,,Clear,70,2013-04-22 02:51:00
11:51 PM,45.0,33.1,63,30.53,10.0,ENE,16.1,20.7,N/A,,Clear,60,2013-04-22 03:51:00